Starlink 30830

operational
NORAD ID: 58194 Int'l Des: 2023-167 Owner: SPXS Country: US Constellation: starlink
LEOCIRCULAR

关于 Starlink 30830

正在加载描述...

实时位置

正在加载3D地球...

即将过境

高度历史

Altitude vs Time

uPlot chart will show altitude changes over time

两行轨道根数

1 58194U 23167V 25303.24756319 -.00000589 00000-0 -28573-4 0 9999
2 58194 43.0032 134.6726 0000889 268.7150 91.3591 15.02535205111339
Epoch: Oct 30, 2025 • Age: 33 hours

当前状态

高度 563.7 km
速度 7.58 km/s
星下点 -21.27°S, 69.75°E
发射日期 Oct 30, 2023
运行时间 2 years
类型 internet

技术详情

分类 Payload
质量 730.00 kg
干质量 700.00 kg
总质量 730.00 kg
长度 0.30 m
直径 4.10 m
跨度 29.00 m
形状 Box + pan
制造商 SPXS
平台类型 Starlink V2M
阶段状态 In Orbit
所有者/国家 SPXS/US

大型星座

Loading constellations...